• In Czech Republic
  • List of Countries
  • For 7 days
  • Water Temperature
  • Satellite Maps
  • Weather Map
  • Weather Widgets
  • user-avatar
    Login

    Hourly Weather Nativitas

    Today, 20 November, Monday

    Time Temperature Precipitation Wind Pressure Humidity
    00:00 +9°C° 0 mm 2 mps 582 mmHg 84%
    01:00 +8°C° 0 mm 2 mps 581 mmHg 84%
    02:00 +8°C° 0 mm 2 mps 581 mmHg 84%
    03:00 +8°C° 0 mm 2 mps 581 mmHg 83%
    04:00 +8°C° 0 mm 2 mps 581 mmHg 82%
    05:00 +8°C° 0 mm 2 mps 580 mmHg 81%
    06:00 +11°C° 0 mm 1 mps 582 mmHg 72%
    07:00 +13°C° 0 mm 1 mps 583 mmHg 63%
    08:00 +15°C° 0 mm 1 mps 584 mmHg 54%
    09:00 +18°C° 0 mm 1 mps 584 mmHg 48%
    10:00 +19°C° 0 mm 1 mps 585 mmHg 41%
    11:00 +21°C° 0 mm 1 mps 585 mmHg 35%
    12:00 +21°C° 0 mm 2 mps 585 mmHg 34%
    13:00 +21°C° 0 mm 2 mps 584 mmHg 33%
    14:00 +21°C° 0 mm 3 mps 584 mmHg 32%
    15:00 +20°C° 0 mm 3 mps 583 mmHg 40%
    16:00 +18°C° 0 mm 2 mps 582 mmHg 47%
    17:00 +16°C° 0 mm 2 mps 581 mmHg 54%
    18:00 +15°C° 0 mm 2 mps 581 mmHg 58%
    19:00 +14°C° 0 mm 1 mps 581 mmHg 63%
    20:00 +13°C° 0 mm 1 mps 582 mmHg 67%
    21:00 +13°C° 0 mm 1 mps 581 mmHg 68%
    22:00 +13°C° 0 mm 1 mps 581 mmHg 70%
    23:00 +12°C° 0 mm 1 mps 581 mmHg 71%

    Tomorrow, 21 November, Tuesday

    Time Temperature Precipitation Wind Pressure Humidity
    00:00 +12°C° 0 mm 1 mps 581 mmHg 72%
    01:00 +11°C° 0 mm 1 mps 580 mmHg 72%
    02:00 +11°C° 0 mm 1 mps 580 mmHg 73%
    03:00 +11°C° 0 mm 1 mps 580 mmHg 73%
    04:00 +11°C° 0 mm 1 mps 580 mmHg 73%
    05:00 +10°C° 0 mm 1 mps 580 mmHg 73%
    06:00 +12°C° 0 mm 1 mps 581 mmHg 66%
    07:00 +14°C° 0 mm 1 mps 582 mmHg 59%
    08:00 +16°C° 0 mm 1 mps 583 mmHg 53%
    09:00 +19°C° 0 mm 1 mps 583 mmHg 47%
    10:00 +19°C° 0 mm 2 mps 584 mmHg 41%
    11:00 +21°C° 0 mm 2 mps 584 mmHg 36%
    12:00 +21°C° 0 mm 3 mps 584 mmHg 35%
    13:00 +21°C° 0 mm 3 mps 583 mmHg 34%
    14:00 +22°C° 0 mm 3 mps 582 mmHg 34%
    15:00 +20°C° 0 mm 3 mps 582 mmHg 41%
    16:00 +18°C° 0 mm 2 mps 581 mmHg 48%
    17:00 +16°C° 0 mm 2 mps 581 mmHg 55%
    18:00 +15°C° 0 mm 1 mps 581 mmHg 59%
    19:00 +14°C° 0 mm 1 mps 581 mmHg 64%
    20:00 +13°C° 0 mm 0 mps 581 mmHg 69%
    21:00 +13°C° 0 mm 1 mps 581 mmHg 68%
    22:00 +13°C° 0 mm 1 mps 581 mmHg 68%
    23:00 +12°C° 0 mm 1 mps 581 mmHg 67%

    Day after tomorrow, 22 November, Wednesday

    Time Temperature Precipitation Wind Pressure Humidity
    00:00 +12°C° 0 mm 1 mps 581 mmHg 68%
    01:00 +12°C° 0 mm 1 mps 580 mmHg 68%
    02:00 +11°C° 0 mm 1 mps 580 mmHg 69%
    03:00 +11°C° 0 mm 1 mps 580 mmHg 71%
    04:00 +10°C° 0 mm 2 mps 580 mmHg 73%
    05:00 +9°C° 0 mm 2 mps 580 mmHg 76%
    06:00 +12°C° 0 mm 2 mps 581 mmHg 66%
    07:00 +12°C° 0 mm 3 mps 583 mmHg 56%
    08:00 +13°C° 0 mm 3 mps 584 mmHg 46%
    09:00 +16°C° 0 mm 3 mps 584 mmHg 40%
    10:00 +18°C° 0 mm 3 mps 585 mmHg 35%
    11:00 +19°C° 0 mm 3 mps 585 mmHg 29%
    12:00 +20°C° 0 mm 3 mps 585 mmHg 29%
    13:00 +20°C° 0 mm 3 mps 584 mmHg 30%
    14:00 +20°C° 0 mm 2 mps 584 mmHg 30%
    15:00 +18°C° 0 mm 2 mps 583 mmHg 39%
    16:00 +16°C° 0 mm 3 mps 583 mmHg 47%
    17:00 +13°C° 0 mm 3 mps 582 mmHg 56%
    18:00 +12°C° 0 mm 3 mps 582 mmHg 62%
    19:00 +11°C° 0 mm 3 mps 582 mmHg 68%
    20:00 +10°C° 0 mm 3 mps 583 mmHg 74%
    21:00 +10°C° 0 mm 3 mps 582 mmHg 75%
    22:00 +9°C° 0 mm 3 mps 582 mmHg 75%
    23:00 +8°C° 0 mm 3 mps 582 mmHg 76%

    23 November, Thursday

    Time Temperature Precipitation Wind Pressure Humidity
    00:00 +8°C° 0 mm 3 mps 581 mmHg 74%
    01:00 +7°C° 0 mm 2 mps 581 mmHg 72%
    02:00 +7°C° 0 mm 2 mps 580 mmHg 69%
    03:00 +7°C° 0 mm 2 mps 580 mmHg 67%
    04:00 +7°C° 0 mm 2 mps 580 mmHg 66%
    05:00 +6°C° 0 mm 2 mps 580 mmHg 64%
    06:00 +8°C° 0 mm 2 mps 581 mmHg 58%
    07:00 +10°C° 0 mm 2 mps 582 mmHg 51%
    08:00 +13°C° 0 mm 2 mps 584 mmHg 45%
    09:00 +15°C° 0 mm 2 mps 584 mmHg 40%
    10:00 +16°C° 0 mm 2 mps 584 mmHg 35%
    11:00 +18°C° 0 mm 2 mps 585 mmHg 30%
    12:00 +19°C° 0 mm 2 mps 584 mmHg 29%
    13:00 +19°C° 0 mm 2 mps 584 mmHg 28%
    14:00 +19°C° 0 mm 2 mps 583 mmHg 28%
    15:00 +18°C° 0 mm 2 mps 583 mmHg 35%
    16:00 +16°C° 0 mm 2 mps 582 mmHg 43%
    17:00 +14°C° 0 mm 2 mps 581 mmHg 51%
    18:00 +13°C° 0 mm 2 mps 581 mmHg 57%
    19:00 +12°C° 0 mm 2 mps 582 mmHg 64%
    20:00 +10°C° 0 mm 2 mps 582 mmHg 70%
    21:00 +9°C° 0 mm 2 mps 581 mmHg 73%
    22:00 +9°C° 0 mm 2 mps 581 mmHg 76%
    23:00 +8°C° 0 mm 2 mps 581 mmHg 79%

    24 November, Friday

    Time Temperature Precipitation Wind Pressure Humidity
    00:00 +8°C° 0 mm 2 mps 580 mmHg 76%
    01:00 +7°C° 0 mm 2 mps 580 mmHg 73%
    02:00 +7°C° 0 mm 2 mps 579 mmHg 70%
    03:00 +6°C° 0 mm 2 mps 579 mmHg 66%
    04:00 +6°C° 0 mm 2 mps 579 mmHg 61%
    05:00 +6°C° 0 mm 2 mps 579 mmHg 57%
    06:00 +8°C° 0 mm 2 mps 580 mmHg 49%
    07:00 +9°C° 0 mm 2 mps 582 mmHg 41%
    08:00 +12°C° 0 mm 2 mps 583 mmHg 33%
    09:00 +14°C° 0 mm 2 mps 583 mmHg 29%
    10:00 +16°C° 0 mm 2 mps 584 mmHg 26%
    11:00 +18°C° 0 mm 2 mps 584 mmHg 22%
    12:00 +18°C° 0 mm 2 mps 584 mmHg 23%
    13:00 +19°C° 0 mm 2 mps 583 mmHg 23%
    14:00 +19°C° 0 mm 2 mps 583 mmHg 23%
    15:00 +17°C° 0 mm 2 mps 582 mmHg 30%
    16:00 +15°C° 0 mm 2 mps 582 mmHg 36%
    17:00 +14°C° 0 mm 2 mps 581 mmHg 42%
    18:00 +13°C° 0 mm 1 mps 581 mmHg 47%
    19:00 +12°C° 0 mm 1 mps 581 mmHg 52%
    20:00 +11°C° 0 mm 1 mps 582 mmHg 57%
    21:00 +10°C° 0 mm 1 mps 581 mmHg 58%
    22:00 +10°C° 0 mm 1 mps 581 mmHg 60%
    23:00 +10°C° 0 mm 1 mps 581 mmHg 62%

    25 November, Saturday

    Time Temperature Precipitation Wind Pressure Humidity
    00:00 +9°C° 0 mm 1 mps 580 mmHg 63%
    01:00 +9°C° 0 mm 1 mps 580 mmHg 64%
    02:00 +9°C° 0 mm 1 mps 580 mmHg 64%
    03:00 +8°C° 0 mm 1 mps 580 mmHg 64%
    04:00 +8°C° 0 mm 1 mps 580 mmHg 64%
    05:00 +8°C° 0 mm 1 mps 580 mmHg 64%
    06:00 +10°C° 0 mm 1 mps 581 mmHg 56%
    07:00 +12°C° 0 mm 1 mps 582 mmHg 49%
    08:00 +14°C° 0 mm 1 mps 583 mmHg 41%
    09:00 +16°C° 0 mm 1 mps 584 mmHg 35%
    10:00 +19°C° 0 mm 1 mps 584 mmHg 30%
    11:00 +20°C° 0 mm 2 mps 585 mmHg 24%
    12:00 +20°C° 0 mm 2 mps 585 mmHg 24%
    13:00 +21°C° 0 mm 2 mps 584 mmHg 23%
    14:00 +21°C° 0 mm 2 mps 584 mmHg 23%
    15:00 +19°C° 0 mm 2 mps 583 mmHg 30%
    16:00 +17°C° 0 mm 2 mps 583 mmHg 36%
    17:00 +15°C° 0 mm 2 mps 582 mmHg 43%
    18:00 +14°C° 0 mm 2 mps 582 mmHg 48%
    19:00 +13°C° 0 mm 2 mps 582 mmHg 53%
    20:00 +12°C° 0 mm 2 mps 582 mmHg 58%
    21:00 +10°C° 0 mm 2 mps 582 mmHg 59%
    22:00 +10°C° 0 mm 2 mps 582 mmHg 61%
    23:00 +9°C° 0 mm 2 mps 582 mmHg 62%
    Show more